N609KB CYXS-KBLI

Flight info

Callsign N609KB
Flight time 1h 4m
Altitude 31000
Route YWL
Aircraft STAR/L-SDFGRWY/S

Departure

Time 2026-05-05 23:32
Airport Prince George (International) Airport (CYXS)

Arrival

Time 2026-05-06 00:36
Airport Bellingham International Airport (KBLI)
Time Latitude Longitude Altitude Speed Heading
2026-05-05 23:17 53.88030 -122.67983 2235 ft 0 kts 81°
2026-05-05 23:26 53.88035 -122.67973 2234 ft 9 kts 30°
2026-05-05 23:27 53.88111 -122.67916 2233 ft 16 kts 25°
2026-05-05 23:27 53.88220 -122.67813 2230 ft 16 kts 29°
2026-05-05 23:27 53.88319 -122.67723 2227 ft 13 kts 28°
2026-05-05 23:27 53.88422 -122.67649 2229 ft 19 kts 22°
2026-05-05 23:28 53.88508 -122.67566 2229 ft 17 kts 26°
2026-05-05 23:28 53.88596 -122.67412 2224 ft 21 kts 75°
2026-05-05 23:28 53.88625 -122.67132 2218 ft 21 kts 80°
2026-05-05 23:28 53.88646 -122.66928 2219 ft 14 kts 80°
2026-05-05 23:29 53.88647 -122.66914 2219 ft 0 kts 79°
2026-05-05 23:29 53.88649 -122.66897 2219 ft 12 kts 79°
2026-05-05 23:30 53.88626 -122.66709 2220 ft 6 kts 169°
2026-05-05 23:30 53.88625 -122.66708 2220 ft 0 kts 169°
2026-05-05 23:31 53.88544 -122.66684 2219 ft 33 kts 172°
2026-05-05 23:31 53.88151 -122.66572 2207 ft 82 kts 171°
2026-05-05 23:31 53.87432 -122.66376 2299 ft 120 kts 170°
2026-05-05 23:31 53.86525 -122.66177 2672 ft 142 kts 170°
2026-05-05 23:32 53.85488 -122.65889 3105 ft 160 kts 169°
2026-05-05 23:32 53.84341 -122.65544 3575 ft 174 kts 170°
2026-05-05 23:32 53.83125 -122.65163 4064 ft 180 kts 169°
2026-05-05 23:32 53.81881 -122.64763 4473 ft 189 kts 171°
2026-05-05 23:33 53.80543 -122.64462 4903 ft 192 kts 174°
2026-05-05 23:33 53.79272 -122.64218 5693 ft 176 kts 174°
2026-05-05 23:33 53.78097 -122.64001 6511 ft 164 kts 175°
2026-05-05 23:33 53.76990 -122.63795 7352 ft 156 kts 175°
2026-05-05 23:34 53.75944 -122.63596 8217 ft 151 kts 176°
2026-05-05 23:34 53.74884 -122.63391 9046 ft 151 kts 178°
2026-05-05 23:34 53.73835 -122.63145 9856 ft 153 kts 175°
2026-05-05 23:34 53.72791 -122.62788 10549 ft 157 kts 173°
2026-05-05 23:35 53.71699 -122.62412 11249 ft 159 kts 174°
2026-05-05 23:35 53.70597 -122.62073 11941 ft 162 kts 175°
2026-05-05 23:35 53.69475 -122.61729 12642 ft 166 kts 175°
2026-05-05 23:35 53.68345 -122.61363 13345 ft 169 kts 175°
2026-05-05 23:36 53.67178 -122.60986 14017 ft 172 kts 175°
2026-05-05 23:36 53.65993 -122.60612 14639 ft 174 kts 176°
2026-05-05 23:36 53.64792 -122.60232 15259 ft 177 kts 176°
2026-05-05 23:36 53.63569 -122.59843 15876 ft 181 kts 176°
2026-05-05 23:37 53.62322 -122.59446 16512 ft 183 kts 176°
2026-05-05 23:37 53.61058 -122.59044 17155 ft 186 kts 176°
2026-05-05 23:37 53.59778 -122.58640 17806 ft 189 kts 176°
2026-05-05 23:37 53.58480 -122.58228 18434 ft 191 kts 176°
2026-05-05 23:38 53.57165 -122.57811 19005 ft 193 kts 176°
2026-05-05 23:38 53.55836 -122.57390 19575 ft 196 kts 176°
2026-05-05 23:38 53.54492 -122.56965 20161 ft 197 kts 176°
2026-05-05 23:38 53.53134 -122.56536 20753 ft 200 kts 176°
2026-05-05 23:39 53.51759 -122.56101 21315 ft 202 kts 176°
2026-05-05 23:39 53.50371 -122.55664 21887 ft 204 kts 176°
2026-05-05 23:39 53.48969 -122.55221 22460 ft 206 kts 177°
2026-05-05 23:39 53.47554 -122.54772 23017 ft 209 kts 177°
2026-05-05 23:40 53.46119 -122.54323 23582 ft 211 kts 177°
2026-05-05 23:40 53.44670 -122.53868 24064 ft 213 kts 177°
2026-05-05 23:40 53.43211 -122.53406 24541 ft 214 kts 177°
2026-05-05 23:40 53.41740 -122.52944 25019 ft 215 kts 177°
2026-05-05 23:41 53.40263 -122.52481 25491 ft 217 kts 177°
2026-05-05 23:41 53.38774 -122.52013 25953 ft 218 kts 177°
2026-05-05 23:41 53.37269 -122.51543 26367 ft 223 kts 177°
2026-05-05 23:41 53.35736 -122.51062 26799 ft 225 kts 177°
2026-05-05 23:42 53.34200 -122.50574 27273 ft 224 kts 177°
2026-05-05 23:42 53.32667 -122.50095 27750 ft 224 kts 178°
2026-05-05 23:42 53.31130 -122.49621 28200 ft 225 kts 178°
2026-05-05 23:42 53.29602 -122.49142 28634 ft 227 kts 177°
2026-05-05 23:43 53.28043 -122.48651 29062 ft 229 kts 177°
2026-05-05 23:43 53.26474 -122.48164 29484 ft 230 kts 178°
2026-05-05 23:43 53.24893 -122.47671 29908 ft 232 kts 178°
2026-05-05 23:43 53.23304 -122.47174 30268 ft 233 kts 178°
2026-05-05 23:44 53.21701 -122.46677 30576 ft 236 kts 177°
2026-05-05 23:44 53.20058 -122.46168 30766 ft 245 kts 177°
2026-05-05 23:44 53.18340 -122.45634 30859 ft 257 kts 177°
2026-05-05 23:44 53.16535 -122.45072 30900 ft 271 kts 176°
2026-05-05 23:45 53.14644 -122.44482 30921 ft 282 kts 176°
2026-05-05 23:45 53.12674 -122.43871 30926 ft 293 kts 176°
2026-05-05 23:45 53.08557 -122.42594 30931 ft 308 kts 175°
2026-05-05 23:46 53.04258 -122.41267 30933 ft 318 kts 175°
2026-05-05 23:46 52.99854 -122.39907 30934 ft 325 kts 175°
2026-05-05 23:47 52.95398 -122.38536 30936 ft 329 kts 174°
2026-05-05 23:47 52.90870 -122.37145 30942 ft 332 kts 174°
2026-05-05 23:48 52.86310 -122.35748 30947 ft 334 kts 174°
2026-05-05 23:48 52.81728 -122.34348 30955 ft 336 kts 174°
2026-05-05 23:49 52.77115 -122.32939 30962 ft 338 kts 174°
2026-05-05 23:49 52.72470 -122.31524 30964 ft 338 kts 174°
2026-05-05 23:50 52.67847 -122.30120 30975 ft 337 kts 174°
2026-05-05 23:50 52.63232 -122.28720 30976 ft 337 kts 174°
2026-05-05 23:51 52.58622 -122.27325 30977 ft 337 kts 174°
2026-05-05 23:51 52.54005 -122.25929 30979 ft 337 kts 174°
2026-05-05 23:52 52.49416 -122.24549 30979 ft 338 kts 174°
2026-05-05 23:52 52.44797 -122.23160 30979 ft 337 kts 174°
2026-05-05 23:53 52.40173 -122.21772 30981 ft 338 kts 174°
2026-05-05 23:53 52.35551 -122.20388 30979 ft 338 kts 174°
2026-05-05 23:54 52.30924 -122.19009 30984 ft 338 kts 174°
2026-05-05 23:54 52.26286 -122.17625 30981 ft 339 kts 174°
2026-05-05 23:55 52.21626 -122.16988 30980 ft 332 kts 189°
2026-05-05 23:55 52.17026 -122.17639 30965 ft 333 kts 188°
2026-05-05 23:56 52.12421 -122.18174 30977 ft 331 kts 189°
2026-05-05 23:56 52.07835 -122.18689 30980 ft 330 kts 189°
2026-05-05 23:57 52.03245 -122.19206 30981 ft 331 kts 189°
2026-05-05 23:57 51.98646 -122.19730 30977 ft 332 kts 189°
2026-05-05 23:58 51.94040 -122.20257 30978 ft 332 kts 189°
2026-05-05 23:58 51.89463 -122.20777 30978 ft 332 kts 189°
2026-05-05 23:59 51.84849 -122.21300 30969 ft 332 kts 189°
2026-05-05 23:59 51.80239 -122.21822 30968 ft 332 kts 189°
2026-05-06 00:00 51.75634 -122.22340 30965 ft 331 kts 189°
2026-05-06 00:00 51.71028 -122.22861 30970 ft 332 kts 189°
2026-05-06 00:01 51.66419 -122.23382 30967 ft 332 kts 189°
2026-05-06 00:01 51.61810 -122.23898 30965 ft 332 kts 189°
2026-05-06 00:02 51.57201 -122.24413 30967 ft 332 kts 189°
2026-05-06 00:02 51.52586 -122.24930 30964 ft 332 kts 189°
2026-05-06 00:03 51.47960 -122.25446 30963 ft 334 kts 189°
2026-05-06 00:03 51.44106 -122.25876 30965 ft 334 kts 189°
2026-05-06 00:04 51.39452 -122.26394 30967 ft 335 kts 189°
2026-05-06 00:04 51.34801 -122.26909 30958 ft 335 kts 189°
2026-05-06 00:05 51.27875 -122.27673 30967 ft 331 kts 189°
2026-05-06 00:06 51.23278 -122.28186 30965 ft 331 kts 189°
2026-05-06 00:06 51.18673 -122.28690 30968 ft 332 kts 188°
2026-05-06 00:07 51.14058 -122.29195 30968 ft 333 kts 189°
2026-05-06 00:07 51.09425 -122.29706 30964 ft 334 kts 189°
2026-05-06 00:08 51.04782 -122.30218 30960 ft 335 kts 189°
2026-05-06 00:08 51.00140 -122.30723 30962 ft 335 kts 189°
2026-05-06 00:09 50.95531 -122.31219 30961 ft 332 kts 189°
2026-05-06 00:09 50.90898 -122.31728 30921 ft 330 kts 189°
2026-05-06 00:10 50.86315 -122.32227 30948 ft 331 kts 188°
2026-05-06 00:10 50.81705 -122.32729 30952 ft 333 kts 188°
2026-05-06 00:11 50.77081 -122.33233 30954 ft 333 kts 188°
2026-05-06 00:11 50.72448 -122.33728 30953 ft 334 kts 189°
2026-05-06 00:12 50.67795 -122.34227 30956 ft 335 kts 188°
2026-05-06 00:12 50.63140 -122.34737 30952 ft 336 kts 188°
2026-05-06 00:13 50.58464 -122.35231 30942 ft 337 kts 188°
2026-05-06 00:13 50.53844 -122.35726 30588 ft 300 kts 188°
2026-05-06 00:13 50.51514 -122.35975 30419 ft 329 kts 187°
2026-05-06 00:14 50.49261 -122.36213 30679 ft 322 kts 188°
2026-05-06 00:14 50.47023 -122.36462 30817 ft 321 kts 188°
2026-05-06 00:14 50.44793 -122.36691 30873 ft 321 kts 188°
2026-05-06 00:15 50.40318 -122.37182 30916 ft 323 kts 188°
2026-05-06 00:15 50.35817 -122.37662 30927 ft 326 kts 188°
2026-05-06 00:16 50.31268 -122.38134 30924 ft 330 kts 188°
2026-05-06 00:16 50.26677 -122.38620 30893 ft 333 kts 188°
2026-05-06 00:16 50.24336 -122.38868 30417 ft 341 kts 188°
2026-05-06 00:17 50.21943 -122.39126 29937 ft 348 kts 188°
2026-05-06 00:17 50.19504 -122.39371 29375 ft 353 kts 187°
2026-05-06 00:17 50.17043 -122.39636 28795 ft 356 kts 188°
2026-05-06 00:17 50.14608 -122.39898 28276 ft 356 kts 188°
2026-05-06 00:18 50.12130 -122.40152 27750 ft 358 kts 188°
2026-05-06 00:18 50.09641 -122.40417 27248 ft 359 kts 188°
2026-05-06 00:18 50.07170 -122.40679 26772 ft 351 kts 188°
2026-05-06 00:18 50.04745 -122.40925 26432 ft 348 kts 187°
2026-05-06 00:19 50.02339 -122.41182 26086 ft 345 kts 188°
2026-05-06 00:19 49.99952 -122.41433 25743 ft 343 kts 187°
2026-05-06 00:19 49.97580 -122.41676 25407 ft 340 kts 187°
2026-05-06 00:19 49.95233 -122.41926 25071 ft 337 kts 187°
2026-05-06 00:20 49.92896 -122.42171 24759 ft 336 kts 187°
2026-05-06 00:20 49.90569 -122.42413 24437 ft 335 kts 187°
2026-05-06 00:20 49.88249 -122.42652 24111 ft 334 kts 187°
2026-05-06 00:20 49.85908 -122.42900 23790 ft 339 kts 187°
2026-05-06 00:21 49.83544 -122.43141 23478 ft 342 kts 187°
2026-05-06 00:21 49.81161 -122.43399 23095 ft 344 kts 187°
2026-05-06 00:21 49.78763 -122.43632 22724 ft 345 kts 187°
2026-05-06 00:21 49.76362 -122.43894 22355 ft 345 kts 187°
2026-05-06 00:22 49.73963 -122.44134 21985 ft 344 kts 187°
2026-05-06 00:22 49.71573 -122.44382 21625 ft 344 kts 187°
2026-05-06 00:22 49.69195 -122.44631 21267 ft 341 kts 187°
2026-05-06 00:22 49.66835 -122.44876 20918 ft 339 kts 187°
2026-05-06 00:23 49.64488 -122.45112 20580 ft 336 kts 187°
2026-05-06 00:23 49.62165 -122.45363 20259 ft 335 kts 187°
2026-05-06 00:23 49.59867 -122.45588 19926 ft 335 kts 187°
2026-05-06 00:23 49.57508 -122.45835 19454 ft 338 kts 187°
2026-05-06 00:24 49.55151 -122.46080 18966 ft 341 kts 186°
2026-05-06 00:24 49.52774 -122.46315 18478 ft 343 kts 187°
2026-05-06 00:24 49.50394 -122.46571 17956 ft 344 kts 186°
2026-05-06 00:24 49.48005 -122.46809 17409 ft 343 kts 186°
2026-05-06 00:25 49.45658 -122.47044 16882 ft 334 kts 186°
2026-05-06 00:25 49.43397 -122.47284 16356 ft 327 kts 186°
2026-05-06 00:25 49.41118 -122.47512 15833 ft 321 kts 186°
2026-05-06 00:25 49.38932 -122.47735 15324 ft 316 kts 186°
2026-05-06 00:26 49.36784 -122.47955 14942 ft 307 kts 187°
2026-05-06 00:26 49.34655 -122.48187 14457 ft 307 kts 185°
2026-05-06 00:26 49.32525 -122.48381 13974 ft 306 kts 186°
2026-05-06 00:26 49.30407 -122.48609 13443 ft 301 kts 186°
2026-05-06 00:27 49.28348 -122.48817 12901 ft 292 kts 185°
2026-05-06 00:27 49.26339 -122.49018 12369 ft 286 kts 185°
2026-05-06 00:27 49.24367 -122.49221 11845 ft 281 kts 185°
2026-05-06 00:27 49.22428 -122.49416 11331 ft 278 kts 185°
2026-05-06 00:28 49.20507 -122.49612 10819 ft 275 kts 185°
2026-05-06 00:28 49.18608 -122.49802 10318 ft 272 kts 184°
2026-05-06 00:28 49.16730 -122.49996 9777 ft 268 kts 184°
2026-05-06 00:28 49.14882 -122.50182 9053 ft 265 kts 184°
2026-05-06 00:29 49.13051 -122.50259 8348 ft 262 kts 181°
2026-05-06 00:29 49.11241 -122.50237 7657 ft 258 kts 180°
2026-05-06 00:29 49.09454 -122.50166 6982 ft 255 kts 180°
2026-05-06 00:29 49.07689 -122.50063 6310 ft 252 kts 179°
2026-05-06 00:30 49.05948 -122.49945 5606 ft 248 kts 180°
2026-05-06 00:30 49.04229 -122.49805 4921 ft 246 kts 179°
2026-05-06 00:30 49.02531 -122.49669 4220 ft 243 kts 179°
2026-05-06 00:30 49.00849 -122.49541 3520 ft 241 kts 180°
2026-05-06 00:31 48.99184 -122.49412 2823 ft 237 kts 178°
2026-05-06 00:31 48.97556 -122.49327 2275 ft 229 kts 179°
2026-05-06 00:31 48.96024 -122.49256 2020 ft 211 kts 179°
2026-05-06 00:31 48.94620 -122.49171 1893 ft 193 kts 180°
2026-05-06 00:32 48.93336 -122.49085 1844 ft 177 kts 179°
2026-05-06 00:32 48.92120 -122.48999 1821 ft 174 kts 179°
2026-05-06 00:32 48.90908 -122.48903 1808 ft 175 kts 179°
2026-05-06 00:32 48.89689 -122.48801 1805 ft 170 kts 179°
2026-05-06 00:33 48.88574 -122.48711 1804 ft 153 kts 179°
2026-05-06 00:33 48.87566 -122.48897 1803 ft 144 kts 209°
2026-05-06 00:33 48.86976 -122.50060 1805 ft 141 kts 244°
2026-05-06 00:33 48.86632 -122.51456 1797 ft 140 kts 249°
2026-05-06 00:34 48.86336 -122.52868 1802 ft 141 kts 250°
2026-05-06 00:34 48.85823 -122.54025 1671 ft 132 kts 212°
2026-05-06 00:34 48.84934 -122.54229 1314 ft 127 kts 170°
2026-05-06 00:34 48.84127 -122.53960 1067 ft 111 kts 172°
2026-05-06 00:35 48.83394 -122.53836 867 ft 103 kts 176°
2026-05-06 00:35 48.82701 -122.53759 686 ft 97 kts 178°
2026-05-06 00:35 48.82010 -122.53751 541 ft 106 kts 183°
2026-05-06 00:35 48.81254 -122.53759 438 ft 117 kts 182°
2026-05-06 00:36 48.80448 -122.53750 263 ft 107 kts 181°
2026-05-06 00:36 48.79771 -122.53754 168 ft 85 kts 181°
2026-05-06 00:36 48.79311 -122.53752 158 ft 30 kts 179°
2026-05-06 00:36 48.79121 -122.53749 159 ft 27 kts 178°
2026-05-06 00:37 48.79048 -122.53677 160 ft 12 kts 68°
2026-05-06 00:37 48.79135 -122.53557 160 ft 16 kts 41°
2026-05-06 00:37 48.79230 -122.53438 159 ft 19 kts 29°
2026-05-06 00:37 48.79291 -122.53296 159 ft 22 kts 65°
2026-05-06 00:38 48.79370 -122.53199 159 ft 12 kts 334°
2026-05-06 00:38 48.79380 -122.53218 159 ft 0 kts 309°